{"data":{"norad_id":66793,"intl_designator":"2025-278C","name":"STARLINK-36051","alt_names":[],"object_type":"PAYLOAD","status":"ACTIVE","operator":null,"country":"US","launch_date":"2025-12-01","launch_site_code":"AFETR","launch_vehicle":null,"mission":null,"orbit_class":"UNKNOWN","rcs_meters":null,"size_class":null,"mass_kg":null,"dimensions":null,"purposes":["comms"],"wikipedia_slug":null,"has_3d_model":false,"image_url":null,"decayed_at":null,"tle_current":{"epoch":"2026-05-25T02:24:05.260032Z","epoch_age_seconds":60403,"freshness":"FRESH","line1":"1 66793U 25278C   26145.10006088  .00007595  00000+0  28516-3 0  9996","line2":"2 66793  43.0038  42.9639 0001033 277.6497  82.4237 15.27587231 26895","mean_motion":15.27587231,"eccentricity":0.0001033,"inclination_deg":43.0038,"raan_deg":42.9639,"arg_perigee_deg":277.6497,"mean_anomaly_deg":82.4237,"bstar":0.00028516,"rev_number":2689,"period_min":94.266302491763,"perigee_km":482.31868562267,"apogee_km":483.73620219678,"semimajor_km":6861.1644439097,"source":"CELESTRAK","updated_at":"2026-05-25T13:38:21.324956Z"}}}